Location: Czekan�w
(50.3488°N, 18.7344°E)
Time: 07:52:38
(UTC+00:00)

Cosmos 1603 - Pass Details

Date: 17 February 2020
Orbit: 833 x 858 km, 71.0° (Epoch: 30 March)

Event Time Altitude Azimuth Distance (km) Brightness Sun altitude
Rises 04:53:11 0° 217° (SW) 3,414 6.6 -10.3°
Reaches altitude 10° 04:55:40 10° 220° (SW) 2,479 5.8 -9.9°
Maximum altitude 05:01:20 65° 303° (WNW) 932 3.7 -9.0°
Drops below altitude 10° 05:06:59 10° 25° (NNE) 2,478 6.4 -8.1°
Sets 05:09:28 0° 29° (NNE) 3,412 7.1 -7.7°
